TimePDT,TemperatureF,Dew PointF,Humidity,Sea Level PressureIn,VisibilityMPH,Wind Direction,Wind SpeedMPH,Gust SpeedMPH,PrecipitationIn,Events,Conditions,WindDirDegrees,DateUTC
12:15 AM,44.6,42.8,93,29.74,0.5,Variable,4.6,-,N/A,Fog,Fog,0,2013-09-22 07:15:00
12:25 AM,44.6,42.8,93,29.74,0.2,Variable,3.5,-,N/A,Fog,Fog,0,2013-09-22 07:25:00
12:56 AM,45.0,43.0,93,29.73,0.2,Variable,5.8,-,N/A,Fog,Fog,0,2013-09-22 07:56:00
1:56 AM,44.1,43.0,96,29.73,0.2,Calm,Calm,-,0.01,Fog-Rain,Light Rain,0,2013-09-22 08:56:00
2:37 AM,44.6,42.8,93,29.74,1.0,West,9.2,-,0.02,,Overcast,280,2013-09-22 09:37:00
2:40 AM,44.6,42.8,93,29.74,2.0,Variable,6.9,-,0.02,,Overcast,0,2013-09-22 09:40:00
2:47 AM,44.6,42.8,93,29.74,3.0,Variable,6.9,-,0.02,,Overcast,0,2013-09-22 09:47:00
2:56 AM,44.1,42.1,93,29.72,3.0,Variable,6.9,-,0.02,,Overcast,0,2013-09-22 09:56:00
3:02 AM,44.6,42.8,93,29.73,1.5,Variable,4.6,-,N/A,,Overcast,0,2013-09-22 10:02:00
3:04 AM,44.6,42.8,93,29.73,0.8,Variable,4.6,-,N/A,,Overcast,0,2013-09-22 10:04:00
3:13 AM,44.6,42.8,93,29.73,1.8,Variable,5.8,-,N/A,,Overcast,0,2013-09-22 10:13:00
3:20 AM,44.6,41.0,87,29.73,10.0,Variable,5.8,-,N/A,,Overcast,0,2013-09-22 10:20:00
3:30 AM,44.6,41.0,87,29.73,10.0,Variable,5.8,-,N/A,,Overcast,0,2013-09-22 10:30:00
3:56 AM,44.1,41.0,89,29.71,10.0,Variable,5.8,-,N/A,,Overcast,0,2013-09-22 10:56:00
4:35 AM,42.8,41.0,93,29.72,10.0,Variable,4.6,-,N/A,,Overcast,0,2013-09-22 11:35:00
4:56 AM,44.1,41.0,89,29.71,9.0,Variable,4.6,-,N/A,,Overcast,0,2013-09-22 11:56:00
5:04 AM,42.8,42.8,100,29.72,2.5,Calm,Calm,-,N/A,,Overcast,0,2013-09-22 12:04:00
5:06 AM,42.8,42.8,100,29.72,1.0,Variable,3.5,-,N/A,,Overcast,0,2013-09-22 12:06:00
5:12 AM,42.8,41.0,93,29.72,0.5,WNW,6.9,-,N/A,Fog,Fog,290,2013-09-22 12:12:00
5:21 AM,42.8,41.0,93,29.71,6.0,Variable,5.8,-,N/A,,Overcast,0,2013-09-22 12:21:00
5:43 AM,42.8,41.0,93,29.71,1.2,Variable,3.5,-,0.00,Rain,Light Rain,0,2013-09-22 12:43:00
5:56 AM,43.0,41.0,93,29.72,0.5,Variable,4.6,-,0.00,Fog,Fog,0,2013-09-22 12:56:00
6:11 AM,42.8,41.0,93,29.71,3.0,Variable,6.9,-,0.01,,Overcast,0,2013-09-22 13:11:00
6:46 AM,42.8,41.0,93,29.71,1.8,Variable,5.8,-,0.01,,Overcast,0,2013-09-22 13:46:00
6:56 AM,43.0,41.0,93,29.71,1.0,West,9.2,-,0.01,Rain,Light Rain,270,2013-09-22 13:56:00
7:07 AM,42.8,39.2,87,29.71,2.5,WNW,9.2,24.2,0.01,Rain,Light Rain,290,2013-09-22 14:07:00
7:14 AM,42.8,39.2,87,29.72,10.0,West,11.5,20.7,0.01,,Overcast,270,2013-09-22 14:14:00
7:35 AM,42.8,37.4,81,29.72,10.0,WNW,8.1,19.6,0.01,,Overcast,290,2013-09-22 14:35:00
8:56 AM,42.1,37.0,82,29.72,10.0,Calm,Calm,-,N/A,,Overcast,0,2013-09-22 15:56:00
9:56 AM,44.1,39.0,82,29.71,10.0,Calm,Calm,-,N/A,,Overcast,0,2013-09-22 16:56:00
10:56 AM,46.0,39.9,79,29.68,10.0,Variable,3.5,-,N/A,,Overcast,0,2013-09-22 17:56:00
11:56 AM,46.9,42.1,83,29.65,10.0,Variable,4.6,-,N/A,,Overcast,0,2013-09-22 18:56:00
12:56 PM,45.0,41.0,86,29.66,5.0,Variable,4.6,-,0.01,Rain,Light Rain,0,2013-09-22 19:56:00
1:37 PM,44.6,42.8,93,29.67,2.0,Calm,Calm,-,0.05,Rain,Light Rain,0,2013-09-22 20:37:00
1:49 PM,44.6,42.8,93,29.66,1.5,Variable,4.6,-,0.08,Rain,Light Rain,0,2013-09-22 20:49:00
1:56 PM,44.1,41.0,89,29.67,1.8,Calm,Calm,-,0.10,Rain,Light Rain,0,2013-09-22 20:56:00
2:15 PM,42.8,41.0,93,29.67,0.8,Calm,Calm,-,0.05,Rain,Rain,0,2013-09-22 21:15:00
2:22 PM,42.8,41.0,93,29.68,1.0,Calm,Calm,-,0.09,Rain,Rain,0,2013-09-22 21:22:00
2:38 PM,44.6,42.8,93,29.68,0.5,Calm,Calm,-,0.15,Fog-Rain,Rain,0,2013-09-22 21:38:00
2:46 PM,44.6,42.8,93,29.67,1.5,Calm,Calm,-,0.17,Rain,Light Rain,0,2013-09-22 21:46:00
2:51 PM,44.6,42.8,93,29.67,0.8,Calm,Calm,-,0.18,Rain,Light Rain,0,2013-09-22 21:51:00
2:56 PM,44.1,42.1,93,29.68,0.5,Calm,Calm,-,0.18,Fog-Rain,Light Rain,0,2013-09-22 21:56:00
3:08 PM,44.6,42.8,93,29.67,0.2,Calm,Calm,-,0.01,Fog-Rain,Light Rain,0,2013-09-22 22:08:00
3:20 PM,44.6,42.8,93,29.66,0.5,Calm,Calm,-,0.01,Fog,Fog,0,2013-09-22 22:20:00
3:35 PM,44.6,42.8,93,29.66,0.2,Variable,3.5,-,0.01,Fog,Fog,0,2013-09-22 22:35:00
3:56 PM,44.1,42.1,93,29.67,0.2,Calm,Calm,-,0.01,Fog-Rain,Light Rain,0,2013-09-22 22:56:00
4:08 PM,44.6,42.8,93,29.67,1.0,Calm,Calm,-,0.01,Rain,Light Rain,0,2013-09-22 23:08:00
4:22 PM,44.6,42.8,93,29.67,2.0,Calm,Calm,-,0.03,Rain,Light Rain,0,2013-09-22 23:22:00
4:32 PM,44.6,42.8,93,29.67,1.2,Calm,Calm,-,0.04,Rain,Light Rain,0,2013-09-22 23:32:00
5:27 PM,44.6,42.8,93,29.68,0.8,Calm,Calm,-,N/A,,Overcast,0,2013-09-23 00:27:00
5:52 PM,44.6,42.8,93,29.69,0.2,Variable,5.8,-,N/A,Fog,Fog,0,2013-09-23 00:52:00
5:59 PM,44.6,42.8,93,29.69,1.5,Variable,5.8,-,N/A,,Overcast,0,2013-09-23 00:59:00
6:01 PM,44.6,42.8,93,29.69,5.0,Variable,4.6,-,N/A,,Overcast,0,2013-09-23 01:01:00
6:32 PM,44.6,41.0,87,29.69,1.0,Variable,6.9,-,N/A,,Overcast,0,2013-09-23 01:32:00
6:35 PM,44.6,42.8,93,29.69,0.2,Variable,4.6,-,N/A,Fog,Fog,0,2013-09-23 01:35:00
8:11 PM,39.2,37.4,93,29.72,7.0,Variable,5.8,-,0.01,Rain,Light Rain,0,2013-09-23 03:11:00
8:40 PM,39.2,37.4,93,29.73,1.5,Variable,5.8,-,0.03,Rain,Light Rain,0,2013-09-23 03:40:00
8:42 PM,39.2,37.4,93,29.73,1.8,Variable,3.5,-,0.03,Rain,Light Rain,0,2013-09-23 03:42:00
8:56 PM,41.0,39.0,93,29.75,4.0,Variable,5.8,-,0.05,Rain,Light Rain,0,2013-09-23 03:56:00
9:38 PM,41.0,39.2,93,29.74,10.0,WNW,8.1,-,0.00,,Overcast,290,2013-09-23 04:38:00
10:08 PM,41.0,39.2,93,29.75,0.8,Variable,4.6,-,0.02,Rain,Light Rain,0,2013-09-23 05:08:00
10:56 PM,42.1,39.9,92,29.77,0.5,Variable,5.8,-,0.09,Fog,Fog,0,2013-09-23 05:56:00